*** NOTICE: This page is being replaced by https://dwr.state.co.us/tools/stations This page will shut down on 11/1/2020***
Home - DWR Banner
Station Name:PRAIRIE DITCH NEAR SEVEN-MILE PLAZA (PRADITCO)
Data Source:Co. Division of Water Resources

Provisional Data Subject To Revision

9/22/2020 to 9/25/2020

Change Sort Order      Error Codes
Date/TimeDISCHRG (cfs)DISCHRG2 (cfs)GAGE_HT (ft)
09/22/2020 00:004.15 .83
09/22/2020 00:153.92 .82
09/22/2020 00:303.70 .81
09/22/2020 00:453.70 .81
09/22/2020 01:003.09 .78
09/22/2020 01:152.71 .76
09/22/2020 01:302.53 .75
09/22/2020 01:452.36 .74
09/22/2020 02:002.03 .72
09/22/2020 02:151.88 .71
09/22/2020 02:301.60 .69
09/22/2020 02:451.60 .69
09/22/2020 03:001.46 .68
09/22/2020 03:151.34 .67
09/22/2020 03:301.34 .67
09/22/2020 03:451.34 .67
09/22/2020 04:001.34 .67
09/22/2020 04:151.22 .66
09/22/2020 04:301.22 .66
09/22/2020 04:451.22 .66
09/22/2020 05:001.22 .66
09/22/2020 05:151.22 .66
09/22/2020 05:301.22 .66
09/22/2020 05:451.22 .66
09/22/2020 06:001.22 .66
09/22/2020 06:151.22 .66
09/22/2020 06:301.22 .66
09/22/2020 06:451.22 .66
09/22/2020 07:001.22 .66
09/22/2020 07:151.22 .66
09/22/2020 07:301.22 .66
09/22/2020 07:451.22 .66
09/22/2020 08:001.22 .66
09/22/2020 08:151.22 .66
09/22/2020 08:301.22 .66
09/22/2020 08:451.10 .65
09/22/2020 09:001.10 .65
09/22/2020 09:151.10 .65
09/22/2020 09:301.10 .65
09/22/2020 09:451.10 .65
09/22/2020 10:001.10 .65
09/22/2020 10:151.46 .68
09/22/2020 10:301.60 .69
09/22/2020 10:451.60 .69
09/22/2020 11:001.60 .69
09/22/2020 11:151.60 .69
09/22/2020 11:301.60 .69
09/22/2020 11:451.60 .69
09/22/2020 12:001.60 .69
09/22/2020 12:151.60 .69
09/22/2020 12:301.60 .69
09/22/2020 12:451.60 .69
09/22/2020 13:001.60 .69
09/22/2020 13:151.60 .69
09/22/2020 13:301.60 .69
09/22/2020 13:451.60 .69
09/22/2020 14:001.60 .69
09/22/2020 14:151.60 .69
09/22/2020 14:301.60 .69
09/22/2020 14:451.60 .69
09/22/2020 15:001.60 .69
09/22/2020 15:151.60 .69
09/22/2020 15:301.60 .69
09/22/2020 15:451.60 .69
09/22/2020 16:001.60 .69
09/22/2020 16:151.60 .69
09/22/2020 16:301.60 .69
09/22/2020 16:451.60 .69
09/22/2020 17:001.46 .68
09/22/2020 17:151.46 .68
09/22/2020 17:301.60 .69
09/22/2020 17:451.60 .69
09/22/2020 18:001.60 .69
09/22/2020 18:151.60 .69
09/22/2020 18:301.60 .69
09/22/2020 18:451.60 .69
09/22/2020 19:001.60 .69
09/22/2020 19:151.46 .68
09/22/2020 19:301.46 .68
09/22/2020 19:451.46 .68
09/22/2020 20:001.46 .68
09/22/2020 20:151.46 .68
09/22/2020 20:301.46 .68
09/22/2020 20:451.46 .68
09/22/2020 21:001.46 .68
09/22/2020 21:151.46 .68
09/22/2020 21:301.46 .68
09/22/2020 21:451.46 .68
09/22/2020 22:001.46 .68
09/22/2020 22:151.46 .68
09/22/2020 22:301.46 .68
09/22/2020 22:451.46 .68
09/22/2020 23:001.46 .68
09/22/2020 23:151.34 .67
09/22/2020 23:301.34 .67
09/22/2020 23:451.34 .67
09/23/2020 00:00.89 .63
09/23/2020 00:15.55 .59
09/23/2020 00:30.44 .57
09/23/2020 00:45.44 .57
09/23/2020 01:00.40 .56
09/23/2020 01:15.40 .56
09/23/2020 01:30.40 .56
09/23/2020 01:45.36 .55
09/23/2020 02:00.36 .55
09/23/2020 02:15.33 .54
09/23/2020 02:30.33 .54
09/23/2020 02:45.33 .54
09/23/2020 03:00.33 .54
09/23/2020 03:15.33 .54
09/23/2020 03:30.33 .54
09/23/2020 03:45.33 .54
09/23/2020 04:00.33 .54
09/23/2020 04:15.33 .54
09/23/2020 04:30.33 .54
09/23/2020 04:45.33 .54
09/23/2020 05:00.33 .54
09/23/2020 05:15.33 .54
09/23/2020 05:30.33 .54
09/23/2020 05:45.33 .54
09/23/2020 06:00.33 .54
09/23/2020 06:15.33 .54
09/23/2020 06:30.33 .54
09/23/2020 06:45.33 .54
09/23/2020 07:00.33 .54
09/23/2020 07:15.33 .54
09/23/2020 07:30.29 .53
09/23/2020 07:45.29 .53
09/23/2020 08:00.29 .53
09/23/2020 08:15.29 .53
09/23/2020 08:30.29 .53
09/23/2020 08:45.29 .53
09/23/2020 09:0013.40 1.11
09/23/2020 09:1513.90 1.12
09/23/2020 09:3013.00 1.10
09/23/2020 09:4512.20 1.08
09/23/2020 10:0012.20 1.08
09/23/2020 10:1512.20 1.08
09/23/2020 10:3012.20 1.08
09/23/2020 10:455.66 .89
09/23/2020 11:005.39 .88
09/23/2020 11:155.39 .88
09/23/2020 11:305.39 .88
09/23/2020 11:455.39 .88
09/23/2020 12:005.39 .88
09/23/2020 12:155.39 .88
09/23/2020 12:305.39 .88
09/23/2020 12:455.39 .88
09/23/2020 13:005.39 .88
09/23/2020 13:155.39 .88
09/23/2020 13:305.39 .88
09/23/2020 13:455.39 .88
09/23/2020 14:005.39 .88
09/23/2020 14:155.39 .88
09/23/2020 14:305.39 .88
09/23/2020 14:455.39 .88
09/23/2020 15:005.39 .88
09/23/2020 15:155.39 .88
09/23/2020 15:305.39 .88
09/23/2020 15:455.39 .88
09/23/2020 16:005.39 .88
09/23/2020 16:155.39 .88
09/23/2020 16:305.39 .88
09/23/2020 16:455.39 .88
09/23/2020 17:005.39 .88
09/23/2020 17:155.39 .88
09/23/2020 17:305.39 .88
09/23/2020 17:455.39 .88
09/23/2020 18:005.39 .88
09/23/2020 18:155.39 .88
09/23/2020 18:305.39 .88
09/23/2020 18:455.39 .88
09/23/2020 19:005.39 .88
09/23/2020 19:155.39 .88
09/23/2020 19:305.39 .88
09/23/2020 19:455.39 .88
09/23/2020 20:005.39 .88
09/23/2020 20:155.39 .88
09/23/2020 20:305.39 .88
09/23/2020 20:455.39 .88
09/23/2020 21:005.39 .88
09/23/2020 21:155.39 .88
09/23/2020 21:305.39 .88
09/23/2020 21:455.39 .88
09/23/2020 22:004.62 .85
09/23/2020 22:154.62 .85
09/23/2020 22:304.62 .85
09/23/2020 22:454.38 .84
09/23/2020 23:004.38 .84
09/23/2020 23:154.38 .84
09/23/2020 23:304.38 .84
09/23/2020 23:454.38 .84
09/24/2020 00:004.38 .84
09/24/2020 00:154.38 .84
09/24/2020 00:304.38 .84
09/24/2020 00:454.38 .84
09/24/2020 01:004.38 .84
09/24/2020 01:154.38 .84
09/24/2020 01:303.70 .81
09/24/2020 01:452.89 .77
09/24/2020 02:002.53 .75
09/24/2020 02:152.36 .74
09/24/2020 02:302.36 .74
09/24/2020 02:452.36 .74
09/24/2020 03:002.36 .74
09/24/2020 03:152.36 .74
09/24/2020 03:302.19 .73
09/24/2020 03:452.19 .73
09/24/2020 04:002.19 .73
09/24/2020 04:152.19 .73
09/24/2020 04:302.19 .73
09/24/2020 04:452.19 .73
09/24/2020 05:002.19 .73
09/24/2020 05:152.19 .73
09/24/2020 05:302.19 .73
09/24/2020 05:452.03 .72
09/24/2020 06:002.03 .72
09/24/2020 06:152.03 .72
09/24/2020 06:302.03 .72
09/24/2020 06:452.03 .72
09/24/2020 07:002.03 .72
09/24/2020 07:152.03 .72
09/24/2020 07:302.03 .72
09/24/2020 07:452.03 .72
09/24/2020 08:0016.20 1.17
09/24/2020 08:1522.60 1.29
09/24/2020 08:3022.00 1.28
09/24/2020 08:456.51 .92
09/24/2020 09:006.22 .91
09/24/2020 09:156.22 .91
09/24/2020 09:306.22 .91
09/24/2020 09:456.22 .91
09/24/2020 10:006.22 .91
09/24/2020 10:156.22 .91
09/24/2020 10:306.22 .91
09/24/2020 10:456.22 .91
09/24/2020 11:006.22 .91
09/24/2020 11:156.22 .91
09/24/2020 11:306.22 .91
09/24/2020 11:456.22 .91
09/24/2020 12:006.22 .91
09/24/2020 12:156.22 .91
09/24/2020 12:306.22 .91
09/24/2020 12:456.22 .91
09/24/2020 13:006.22 .91
09/24/2020 13:156.22 .91
09/24/2020 13:306.22 .91
09/24/2020 13:456.22 .91
09/24/2020 14:006.22 .91
09/24/2020 14:156.22 .91
09/24/2020 14:306.22 .91
09/24/2020 14:456.22 .91
09/24/2020 15:006.22 .91
09/24/2020 15:156.22 .91
09/24/2020 15:306.22 .91
09/24/2020 15:456.22 .91
09/24/2020 16:006.22 .91
09/24/2020 16:156.22 .91
09/24/2020 16:306.22 .91
09/24/2020 16:456.22 .91
09/24/2020 17:006.22 .91
09/24/2020 17:156.22 .91
09/24/2020 17:306.22 .91
09/24/2020 17:456.22 .91
09/24/2020 18:006.22 .91
09/24/2020 18:156.22 .91
09/24/2020 18:306.22 .91
09/24/2020 18:456.22 .91
09/24/2020 19:006.22 .91
09/24/2020 19:156.22 .91
09/24/2020 19:306.22 .91
09/24/2020 19:456.22 .91
09/24/2020 20:006.22 .91
09/24/2020 20:156.22 .91
09/24/2020 20:306.22 .91
09/24/2020 20:456.22 .91
09/24/2020 21:006.22 .91
09/24/2020 21:156.22 .91
09/24/2020 21:306.22 .91
09/24/2020 21:456.22 .91
09/24/2020 22:006.22 .91
09/24/2020 22:156.22 .91
09/24/2020 22:306.22 .91
09/24/2020 22:456.22 .91
09/24/2020 23:006.22 .91
09/24/2020 23:156.22 .91
09/24/2020 23:306.22 .91
09/24/2020 23:456.22 .91
09/25/2020 00:006.22 .91
09/25/2020 00:156.22 .91
09/25/2020 00:306.22 .91
09/25/2020 00:456.22 .91
09/25/2020 01:006.22 .91
09/25/2020 01:156.22 .91
09/25/2020 01:306.22 .91
09/25/2020 01:456.22 .91
09/25/2020 02:006.22 .91
09/25/2020 02:156.22 .91
09/25/2020 02:306.22 .91
09/25/2020 02:456.22 .91
09/25/2020 03:006.22 .91
09/25/2020 03:156.22 .91
09/25/2020 03:306.22 .91
09/25/2020 03:456.22 .91
09/25/2020 04:005.93 .90
09/25/2020 04:155.66 .89
09/25/2020 04:305.66 .89
09/25/2020 04:455.66 .89
09/25/2020 05:005.66 .89
09/25/2020 05:155.66 .89
09/25/2020 05:305.66 .89
09/25/2020 05:455.66 .89
09/25/2020 06:005.66 .89
09/25/2020 06:155.39 .88
09/25/2020 06:305.39 .88